GFSGL_con_mlcape_132.txt.gz
CAPE
86 67 109 61 79 119 182 207 222 263 341 404 360 491 545 553 721 747 731 745 704 692 862 954 727 873 875 817 745 777 797 673 611 617 381 572 661 291 508 797 744 742 716
96 73 65 170 129 136 227 175 148 183 245 416 414 471 539 477 633 689 743 828 712 729 540 664 711 642 659 665 690 616 691 606 621 466 485 697 386 194 597 671 672 439 521
146 86 59 111 154 135 279 381 433 416 433 492 540 582 581 572 604 661 620 605 687 593 695 481 529 583 622 500 544 641 616 601 617 651 541 269 137 418 521 565 363 278 818
215 176 124 131 188 240 362 365 430 419 434 452 499 432 477 512 529 658 646 672 720 691 695 700 775 756 703 575 548 553 559 528 443 465 353 109 283 433 510 502 153 201 659
293 273 195 193 236 429 404 373 375 423 490 492 507 548 533 565 589 654 668 824 800 752 704 634 667 618 689 709 661 595 579 554 517 504 316 275 238 258 438 325 102 0 373
386 352 242 238 383 482 391 426 483 564 452 505 538 511 409 283 81 93 147 329 381 381 392 440 497 361 315 436 462 364 455 499 477 366 257 367 163 380 175 147 10 0 4
385 289 214 213 273 278 246 270 253 200 146 159 243 209 95 15 0 0 0 17 102 141 103 289 294 240 61 94 71 84 63 90 127 204 283 251 260 207 0 15 0 0 6
174 138 76 89 50 60 76 111 109 86 77 52 20 17 5 0 0 0 0 1 8 33 15 22 226 111 0 4 160 37 0 0 0 0 0 0 0 0 0 12 0 0 1
73 19 4 4 51 24 22 49 65 40 49 27 0 0 0 0 0 0 0 8 34 7 0 1 2 1 0 0 79 2 0 0 0 0 0 0 0 0 0 0 0 0 0
4 32 45 51 46 43 35 19 10 12 15 0 0 0 0 0 0 0 6 54 26 0 0 0 0 0 0 0 0 0 0 0 0 0 0 0 0 0 0 0 0 0 0
44 92 46 26 46 47 36 29 24 7 0 0 0 0 0 0 0 0 9 1 0 0 0 0 0 0 0 0 0 0 0 0 0 0 0 0 0 0 0 0 0 0 0
41 52 11 64 54 12 2 0 0 0 0 0 0 0 0 0 0 0 0 0 0 0 0 0 0 0 0 0 0 0 0 0 0 0 0 0 0 0 0 0 0 0 0
0 0 0 0 2 1 0 0 0 0 0 0 0 0 0 0 0 0 0 0 0 0 0 0 0 0 0 0 0 0 0 0 0 0 0 0 0 0 0 0 0 0 0
0 0 1 0 0 0 0 0 0 0 0 0 0 0 0 0 0 0 0 0 0 0 0 0 0 0 0 0 0 0 0 0 0 0 0 0 0 0 0 0 0 0 0
0 0 1 1 0 0 0 0 0 0 0 0 0 0 0 0 0 0 0 0 0 0 0 0 0 0 0 0 0 0 0 0 0 0 0 0 0 0 0 0 0 0 0
0 0 0 0 0 0 0 0 0 0 0 0 0 0 0 0 0 0 0 0 0 0 0 0 0 0 0 0 0 0 0 0 0 0 0 0 0 0 0 0 0 0 0
0 0 0 0 0 0 0 0 0 0 0 0 0 0 0 0 0 0 0 0 0 0 0 0 0 0 0 0 0 0 0 0 0 0 0 0 0 0 0 0 0 0 0
0 0 0 0 0 0 0 0 0 0 0 0 0 0 0 0 0 0 0 0 0 0 0 0 0 0 0 0 0 0 0 0 0 0 0 0 0 0 0 0 0 0 0
0 0 0 0 0 0 0 0 0 0 0 0 0 0 0 0 0 0 0 0 0 0 0 0 0 0 0 0 0 0 0 0 0 0 0 0 0 0 0 0 0 0 0
0 0 0 0 0 0 0 0 0 0 0 0 0 0 0 0 0 0 0 0 0 0 0 0 0 0 0 0 0 0 0 0 0 0 0 0 0 0 0 0 0 0 0
0 0 0 0 0 0 0 0 0 0 0 0 0 0 0 0 0 0 0 0 0 0 0 0 0 0 0 0 0 0 0 0 0 0 0 0 0 0 0 0 0 0 0
0 0 0 0 0 0 0 0 0 0 0 0 0 0 0 0 0 0 0 0 0 0 0 0 0 0 0 0 0 0 0 0 0 0 0 0 0 0 0 0 0 0 0
0 0 0 0 0 0 0 0 0 0 0 0 0 0 0 0 0 0 0 0 0 0 0 0 0 0 0 0 0 0 0 0 0 0 0 0 0 0 0 0 0 0 0
0 0 0 0 0 0 0 0 0 0 0 0 0 0 0 0 0 0 0 0 0 0 0 0 0 0 0 0 0 0 0 0 0 0 0 0 0 0 0 0 0 0 0
0 0 0 0 0 0 0 0 0 0 0 0 0 0 0 0 0 0 0 0 0 0 0 0 0 0 0 0 0 0 0 0 0 0 0 0 0 0 0 0 0 0 0
0 0 0 0 0 0 0 0 0 0 0 0 0 0 0 0 0 0 0 0 0 0 0 0 0 0 0 0 0 0 0 0 0 0 0 0 0 0 0 0 0 0 0

GFSGL_con_mlcape_135.txt.gz
CAPE
253 238 178 118 199 318 371 401 560 680 521 623 789 902 1032 928 1063 1243 1240 1336 1249 1395 1366 1554 1598 1555 1529 1508 1364 1447 1328 1172 722 511 1049 1029 1671 1146 1263 1694 1268 1015 1158
315 316 288 254 163 227 328 392 533 564 695 742 861 594 880 990 1026 780 1035 1052 1202 1260 1242 1251 1264 1244 1160 1228 1288 1481 1141 1420 1029 1035 1045 1155 1289 908 1609 1514 1078 914 1274
335 319 324 345 383 359 386 584 708 445 499 664 834 972 994 1061 961 728 740 1125 1404 1350 1296 1004 897 1177 1223 996 919 1021 1107 1237 1262 1170 990 1049 694 1078 1010 1382 896 1519 456
357 334 299 293 376 489 448 422 710 910 830 810 921 897 697 996 999 910 825 795 979 1049 1052 925 1080 1239 1032 980 871 1127 853 873 1287 1216 816 840 759 1136 1234 894 440 652 0
412 429 415 484 492 468 467 541 786 741 567 502 472 634 860 948 851 1059 957 811 890 919 885 964 1072 1101 668 533 422 411 537 377 483 582 687 855 732 575 903 778 379 154 96
370 465 612 675 540 550 593 678 890 782 855 690 543 415 449 805 35 57 206 755 656 567 687 727 704 526 394 181 182 250 429 356 434 587 474 359 572 865 774 540 224 47 127
468 573 684 840 687 760 938 859 754 801 874 670 609 570 494 369 0 0 1 169 483 674 622 632 493 514 236 276 65 21 0 11 82 517 534 950 914 956 144 183 255 53 25
802 728 674 516 511 533 707 739 688 600 435 259 159 82 37 0 0 0 0 19 54 66 228 187 151 352 31 5 130 80 0 0 0 51 104 42 0 0 0 214 214 62 0
333 224 165 117 107 56 108 178 131 132 106 59 56 10 8 0 0 0 0 0 7 16 0 0 0 3 0 0 52 10 0 0 0 0 0 0 0 0 16 41 0 0 8
134 107 108 64 55 56 24 9 84 40 14 0 0 0 0 0 0 0 0 3 0 0 0 0 0 0 0 0 106 0 0 0 0 0 0 0 0 0 0 0 0 0 0
3 53 49 7 81 86 95 62 27 0 0 0 0 0 0 0 0 0 0 0 0 0 0 0 0 0 0 0 0 0 0 0 0 0 0 0 0 0 0 0 0 0 0
67 66 50 59 45 59 16 0 0 0 0 0 0 0 0 0 0 0 0 0 0 0 0 0 0 0 0 0 0 0 0 0 0 0 0 0 0 0 0 0 0 0 0
2 0 0 1 1 6 0 0 0 0 0 0 0 0 0 0 0 0 0 0 0 0 0 0 0 0 0 0 0 0 0 0 0 0 0 0 0 0 0 0 0 0 0
0 0 0 0 0 0 0 2 2 0 0 0 0 0 0 0 0 0 0 0 0 0 0 0 0 0 0 0 0 0 0 0 0 0 0 0 0 0 0 0 0 0 0
1 0 0 0 0 0 0 0 0 0 0 0 0 0 0 0 0 0 0 0 0 0 0 0 0 0 0 0 0 0 0 0 0 0 0 0 0 0 0 0 0 0 0
0 0 0 0 1 1 0 0 1 0 0 0 0 0 0 0 0 0 0 0 0 0 0 0 0 0 0 0 0 0 0 0 0 0 0 0 0 0 0 0 0 0 0
0 0 0 0 0 0 0 0 0 0 0 0 0 0 0 0 0 0 0 0 0 0 0 0 0 0 0 0 0 0 0 0 0 0 0 0 0 0 0 0 0 0 0
0 0 0 0 0 0 0 0 0 0 0 0 0 0 0 0 0 0 0 0 0 0 0 0 0 0 0 0 0 0 0 0 0 0 0 0 0 0 0 0 0 0 0
0 0 0 0 0 0 0 0 0 0 0 0 0 0 0 0 0 0 0 0 0 0 0 0 0 0 0 0 0 0 0 0 0 0 0 0 0 0 0 0 0 0 0
0 0 0 0 0 0 0 0 0 0 0 0 0 0 0 0 0 0 0 0 0 0 0 0 0 0 0 0 0 0 0 0 0 0 0 0 0 0 0 0 0 0 0
0 0 0 0 0 0 0 0 0 0 0 0 0 0 0 0 0 0 0 0 0 0 0 0 0 0 0 0 0 0 0 0 0 0 0 0 0 0 0 0 0 0 0
0 0 0 0 0 0 0 0 0 0 0 0 0 0 0 0 0 0 0 0 0 0 0 0 0 0 0 0 0 0 0 0 0 0 0 0 0 0 0 0 0 0 0
0 0 0 0 0 0 0 0 0 0 0 0 0 0 0 0 0 0 0 0 0 0 0 0 0 0 0 0 0 0 0 0 0 0 0 0 0 0 0 0 0 0 0
0 0 0 0 0 0 0 0 0 0 0 0 0 0 0 0 0 0 0 0 0 0 0 0 0 0 0 0 0 0 0 0 0 0 0 0 0 0 0 0 0 0 1
19 13 1 0 0 0 0 0 0 0 0 0 0 0 0 0 0 0 0 0 0 0 0 0 0 0 0 0 0 0 0 0 0 0 0 0 0 0 0 0 1 1 0
1 1 1 0 1 7 4 0 0 0 0 0 0 0 0 0 0 0 0 0 0 0 0 0 0 0 0 0 0 0 0 0 0 0 0 0 0 0 1 3 2 1 0

GFSGL_con_mlcape_138.txt.gz
CAPE
702 420 456 513 567 710 602 745 852 835 535 1056 1084 908 951 1024 1326 1453 1060 1232 1383 1270 1221 1311 1409 1586 1017 810 859 770 613 459 377 239 256 808 1257 1655 1247 1513 1086 757 959
646 579 608 622 616 414 489 576 736 1029 1322 1524 1087 790 877 854 1053 1108 1060 775 1242 1284 1224 1135 1171 947 1245 1313 833 761 765 1166 749 551 566 600 1277 1104 1380 1695 1163 718 930
665 619 665 743 694 427 409 663 739 987 1249 1252 1333 1066 1053 828 895 1049 923 983 1105 1107 1103 1115 1193 1123 1138 1128 1315 895 758 747 945 815 702 603 817 888 795 1369 1124 1403 475
733 651 663 736 802 722 749 893 990 1153 1269 1016 1156 1273 1042 950 951 1124 1120 1096 1047 1075 1058 1010 917 874 1047 1195 1031 976 870 850 700 1052 637 458 582 918 866 765 837 752 31
942 975 962 993 909 923 883 1053 1026 1052 1248 980 1109 723 769 830 779 825 1233 1233 1120 1128 1029 974 839 812 847 804 841 755 664 678 610 585 490 382 564 791 592 725 689 428 6
1159 1179 1214 1373 1320 1059 1066 1127 1103 1190 1401 1197 1090 738 595 713 97 124 268 503 737 698 804 991 987 804 495 215 213 222 338 637 614 514 414 461 735 802 952 896 575 332 433
1262 1331 1337 1490 1552 1195 1186 1068 1221 1285 1261 1214 1083 967 923 243 0 0 0 321 795 602 716 900 949 575 536 1025 231 49 11 24 64 472 706 890 1113 1019 1010 614 790 336 155
785 933 1094 1231 1419 1156 1227 1125 1206 1232 1139 1211 1001 1093 909 0 0 0 0 59 676 894 784 747 798 661 865 428 589 916 449 45 7 181 750 586 207 165 214 308 578 295 0
899 965 1143 1126 1106 1098 1101 1082 835 838 768 835 749 575 531 137 0 0 0 117 310 540 342 13 0 32 17 0 199 704 115 0 0 0 0 0 0 0 2 286 155 49 45
657 419 321 330 134 221 122 156 97 147 48 0 0 0 0 0 0 0 0 34 173 122 23 2 0 0 0 0 20 93 23 0 0 0 0 0 0 0 0 0 0 4 11
276 280 185 112 80 53 110 71 51 5 0 0 0 0 0 0 0 0 0 0 1 0 1 0 0 0 0 0 0 209 123 31 0 0 0 0 0 0 0 0 0 0 0
275 244 244 135 76 27 0 0 0 0 0 0 1 1 0 0 0 0 0 0 0 1 0 0 0 0 0 0 0 0 0 0 0 0 0 0 0 0 0 0 0 0 0
78 24 1 0 0 6 0 1 0 0 0 1 0 0 0 0 0 0 0 0 0 0 0 0 0 0 0 0 0 0 0 0 0 0 0 0 0 0 0 0 0 0 0
0 0 4 0 0 0 1 4 3 3 2 2 1 0 0 0 0 0 0 0 0 0 0 0 0 0 0 0 0 0 0 0 0 0 0 0 0 0 0 0 0 0 0
3 3 1 1 0 0 0 0 0 0 0 2 0 0 0 0 0 0 0 0 0 0 0 1 0 0 0 0 0 0 0 0 0 0 0 0 0 0 0 0 0 0 0
0 0 1 0 0 0 0 1 1 1 0 0 0 0 0 0 0 0 0 0 0 0 0 0 0 0 0 0 0 0 0 0 0 0 0 0 0 0 0 0 0 0 0
0 0 0 0 0 0 0 0 0 0 0 0 0 0 0 0 0 0 0 0 0 0 0 0 0 0 0 0 0 0 0 0 0 0 0 0 0 0 0 0 0 0 0
0 0 0 0 0 0 0 0 0 0 0 0 0 0 0 0 0 0 0 0 0 0 0 0 0 0 0 0 0 0 0 0 0 0 0 0 0 0 0 0 0 0 0
0 0 0 0 0 0 0 0 0 0 0 0 0 0 0 0 0 0 0 0 0 0 0 0 0 0 0 0 0 0 0 0 0 0 0 0 0 0 0 0 0 0 0
0 0 0 0 0 0 0 0 0 0 0 0 0 0 0 0 0 0 0 0 0 0 0 0 0 0 0 0 0 0 0 0 0 0 0 0 0 0 0 0 0 0 0
0 0 0 0 0 0 0 0 0 0 0 0 0 0 0 0 0 0 0 0 0 0 0 0 0 0 0 0 0 0 0 0 0 0 0 0 0 0 0 0 0 0 0
0 0 0 0 0 0 0 0 0 0 0 0 0 0 0 0 0 0 0 0 0 0 0 0 0 0 0 0 0 0 0 0 0 0 0 0 0 0 0 0 0 0 0
0 0 0 0 0 0 0 0 0 0 0 0 0 0 0 0 0 0 0 0 0 0 0 0 0 0 0 0 0 0 0 0 0 0 0 0 0 0 0 0 0 0 0
11 21 26 33 10 0 0 0 0 0 0 0 0 0 0 0 0 0 0 0 0 0 0 0 0 0 0 0 0 0 0 0 0 0 0 0 0 0 0 0 0 0 0
16 36 39 37 26 22 26 23 14 2 0 0 0 0 0 0 0 0 0 0 0 0 0 0 0 0 0 0 0 0 0 0 0 0 0 0 0 0 0 0 1 2 2
4 1 0 0 1 6 15 25 32 32 29 2 0 0 0 0 0 0 0 0 0 0 0 0 0 0 0 0 0 0 0 0 0 0 0 0 0 0 1 3 4 4 5

GFSGL_con_mlcape_141.txt.gz
CAPE
823 706 776 783 790 802 702 770 765 956 1256 982 1303 1123 1228 1147 1277 1326 1470 1500 1599 1339 1224 1174 1103 1547 1080 647 931 637 347 230 345 332 347 1138 1307 1062 1216 1239 1106 1187 130
759 736 715 787 828 739 783 798 833 996 1182 1214 1148 1406 947 1115 1193 1347 1288 882 997 986 915 1206 1146 783 1317 1702 894 479 311 606 489 553 231 337 1003 1110 1187 1270 1003 888 3
828 762 785 929 901 833 717 781 751 974 1140 1286 1336 1275 1111 1138 1214 1249 1416 1371 1187 836 917 887 1004 1020 834 938 1329 1467 819 1151 908 861 627 430 506 304 840 723 1426 750 0
868 850 994 1012 1055 1004 809 878 1020 1131 1228 1299 1423 1470 1441 1329 1010 1109 1212 1120 1272 915 1064 837 780 827 705 880 1286 899 1131 896 548 660 702 448 544 752 636 493 508 635 2
1091 1007 1066 1189 1191 1307 1188 1128 1240 1306 1328 1551 1323 1413 1232 986 754 1071 1239 1074 1252 1283 1405 1388 1067 643 669 950 923 707 862 535 606 646 746 701 295 348 714 983 694 496 385
1282 1288 1330 1514 1496 1243 1211 1273 1475 1415 1319 1569 1279 1353 1219 931 73 155 333 1000 634 613 637 1039 1095 744 846 497 228 224 358 757 800 606 434 408 1007 1085 940 485 653 470 311
1486 1565 1634 1751 1813 1501 1432 1380 1322 1371 1353 1430 1382 1255 1044 659 6 0 10 403 912 861 955 386 189 475 523 897 407 181 89 89 125 405 318 557 967 1353 1311 1157 696 1056 544
1972 1688 1734 1743 1738 1643 1562 1397 1358 1255 1156 1162 1233 1130 839 0 0 0 0 177 501 947 1180 1055 633 470 460 618 684 799 900 377 58 86 742 822 281 316 742 658 952 882 294
1389 1348 1334 1089 838 912 892 1458 1289 1224 1374 1244 971 464 404 0 0 0 0 173 222 674 777 552 63 262 27 2 55 270 719 116 0 0 0 0 0 0 2 235 460 202 183
1228 1453 1682 1532 1351 1140 876 963 842 1116 314 118 0 0 0 0 0 0 0 117 172 503 341 106 0 0 0 0 6 161 368 200 0 0 0 0 0 0 0 0 0 11 22
606 696 646 542 522 373 502 422 345 167 16 0 0 0 0 0 0 0 0 5 15 15 1 0 0 0 0 0 0 0 86 126 0 15 0 0 0 0 0 0 0 0 0
419 335 361 387 275 108 42 4 0 0 1 2 1 1 2 0 0 0 0 0 0 0 0 0 0 0 0 0 0 0 0 0 0 0 0 0 0 0 0 0 0 0 0
363 239 56 11 32 6 4 3 2 1 0 0 0 1 0 1 1 0 0 0 0 0 0 0 0 0 0 0 0 0 0 0 0 0 0 0 0 0 0 0 0 0 0
53 3 2 0 2 5 4 4 3 2 3 3 3 2 0 0 0 0 0 0 0 0 0 0 0 0 0 0 0 0 0 0 0 0 0 0 0 0 0 0 0 0 0
2 3 3 3 0 0 0 0 0 0 0 1 2 0 0 0 0 0 0 1 1 0 2 1 0 0 1 0 0 0 0 0 0 0 0 0 0 0 0 0 0 0 0
3 3 1 1 1 4 2 0 0 0 0 0 0 0 0 0 0 0 0 0 0 0 0 2 0 0 0 0 0 0 0 0 0 0 0 0 0 0 0 0 0 0 0
0 0 0 0 0 0 0 0 0 0 0 0 0 0 0 0 0 0 0 0 0 0 0 0 0 0 0 0 0 0 0 0 0 0 0 0 0 0 0 0 0 0 0
0 0 0 0 0 0 0 0 0 0 0 0 0 0 0 0 0 0 0 0 0 0 0 0 0 0 0 0 0 0 0 0 0 0 0 0 0 0 0 0 0 0 0
0 0 0 0 0 0 0 0 0 0 0 0 0 0 0 0 0 0 0 0 0 0 0 0 0 0 0 0 0 0 0 0 0 0 0 0 0 0 0 0 0 0 0
0 0 0 0 0 0 0 0 0 0 0 0 0 0 0 0 0 0 0 0 0 0 0 0 0 0 0 0 0 0 0 0 0 0 0 0 0 0 0 0 0 0 0
0 0 0 0 0 0 0 0 0 0 0 0 0 0 0 0 0 0 0 0 0 0 0 0 0 0 0 0 0 0 0 0 0 0 0 0 0 0 0 0 0 0 0
0 0 0 0 0 0 0 0 0 0 0 0 0 0 0 0 0 0 0 0 0 0 0 0 0 0 0 0 0 0 0 0 0 0 0 0 0 0 0 0 0 0 0
5 4 4 3 0 0 0 0 0 0 0 0 0 0 0 0 0 0 0 0 0 0 0 0 0 0 0 0 0 0 0 0 0 0 0 0 0 0 0 0 0 0 0
7 14 18 15 10 16 2 7 8 0 0 0 0 0 0 2 4 3 2 7 5 1 0 0 0 0 0 0 0 0 0 0 0 0 0 0 0 0 0 0 0 0 0
20 17 12 19 17 10 10 7 12 18 8 4 3 1 4 7 12 13 18 16 11 10 4 4 0 0 0 0 0 0 0 0 0 0 0 0 0 0 0 0 1 3 0
15 2 0 0 0 0 0 0 0 0 2 9 12 33 26 8 3 8 7 4 5 11 10 8 2 0 0 0 0 0 0 0 0 0 0 0 0 0 0 3 0 4 1

GFSGL_con_mlcape_144.txt.gz
CAPE
996 767 786 771 660 934 1088 628 1116 1193 1148 1119 1089 1326 1205 1251 1371 1299 1295 780 735 1072 1251 824 924 1174 1129 1241 1056 743 447 334 709 867 585 1031 1382 701 952 858 1293 296 0
797 1114 907 830 909 757 684 964 780 757 1169 1207 1057 1291 1222 1210 1087 909 705 981 1100 972 642 1094 1090 1165 1061 1025 976 1386 1385 764 525 471 543 378 679 1394 941 881 1202 83 0
1043 1061 1004 1114 861 1083 1020 866 1276 1099 1167 1390 1378 1228 1485 1093 895 960 1079 799 1094 1281 1136 977 897 660 794 599 594 891 751 794 557 193 409 985 1037 465 844 1364 646 55 0
897 1058 963 925 992 1035 1058 982 999 874 934 1055 1189 1207 1592 1368 1226 1210 954 1052 923 1070 1289 1079 797 886 485 322 662 686 693 819 468 521 473 356 436 478 224 473 367 39 0
1124 1127 1113 1094 1075 1036 955 950 1107 1090 1152 1202 1193 1222 1313 1318 1183 686 1000 1048 1002 966 1081 1158 1226 494 432 565 716 698 572 448 575 301 238 225 486 244 350 512 400 376 180
1379 1439 1559 1095 1173 1182 915 820 822 1052 1266 1218 1095 1246 1115 1084 175 136 271 671 641 545 433 650 554 562 647 336 273 229 143 145 249 201 190 180 134 146 321 203 87 239 274
1560 1624 1584 1616 1406 1398 1532 1449 1410 1285 1280 1201 1374 1233 1053 145 14 0 43 196 607 818 761 748 889 344 249 339 328 152 92 95 91 167 238 154 192 684 222 139 231 382 367
1371 1282 1433 1588 1678 1479 1398 1530 989 1270 1389 1165 1215 1049 639 10 0 0 10 42 229 468 706 871 982 1009 65 103 208 248 326 245 39 0 39 45 3 0 2 195 331 311 310
1192 1345 1344 1560 1562 1380 1831 1742 1370 1040 1024 924 718 612 127 0 0 0 0 90 240 277 500 14 21 15 0 0 4 63 95 46 0 0 0 0 0 0 0 6 16 119 64
1354 1297 1170 1017 1129 1192 1010 998 1028 855 434 96 13 4 5 1 0 0 0 3 90 221 28 0 0 0 0 0 0 0 61 76 0 0 0 0 0 0 0 0 0 0 0
503 474 574 658 827 701 709 520 519 216 31 2 2 4 0 1 0 0 0 0 11 11 0 0 0 0 0 0 0 0 0 1 0 0 0 0 0 0 0 0 0 0 0
133 50 152 273 145 168 114 15 0 0 0 0 1 3 1 0 0 0 0 0 0 0 0 0 0 0 0 0 0 0 0 0 0 0 0 0 0 0 0 0 0 0 0
206 138 106 66 89 19 3 0 0 1 0 1 0 0 1 1 0 0 0 0 0 0 0 0 0 0 0 0 0 0 0 0 0 0 0 0 0 0 0 0 0 0 0
36 9 26 77 28 2 1 1 0 0 0 2 2 0 0 0 0 0 0 0 0 0 0 0 0 0 0 0 0 0 0 0 0 0 0 0 0 0 0 0 0 0 0
10 4 2 1 0 0 0 0 0 0 0 1 0 0 0 0 0 0 0 0 1 0 0 0 0 0 0 0 0 0 0 0 0 0 0 0 0 0 0 0 0 0 0
0 0 0 0 0 0 0 0 0 0 0 0 0 0 0 0 0 0 0 0 0 0 0 2 0 0 0 0 0 0 0 0 0 0 0 0 0 0 0 0 0 0 0
9 0 0 0 0 0 0 0 0 0 0 0 0 0 0 0 0 0 0 0 0 0 0 0 0 0 0 0 0 0 0 0 0 0 0 0 0 0 0 0 0 0 0
1 1 18 3 0 0 1 0 0 0 0 0 0 0 0 0 0 0 0 0 0 0 0 0 0 0 0 0 0 0 0 0 0 0 0 0 0 0 0 0 0 0 0
0 0 0 0 0 0 0 0 0 0 0 0 0 0 0 0 0 0 0 0 0 0 0 0 0 0 0 0 0 0 0 0 0 0 0 0 0 0 0 0 0 0 0
0 0 0 0 0 0 0 0 0 0 0 0 0 0 0 0 0 0 0 0 0 0 0 0 0 0 0 0 0 0 0 0 0 0 0 0 0 0 0 0 0 0 0
0 0 0 0 0 0 0 0 0 0 0 0 0 0 0 0 0 0 0 0 0 0 0 0 0 0 0 0 0 0 0 0 0 0 0 0 0 0 0 0 0 0 0
0 0 0 0 0 0 0 0 0 0 0 0 0 0 0 0 0 0 0 0 0 0 0 0 0 0 0 0 0 0 0 0 0 0 0 0 0 0 0 0 0 0 0
2 0 0 0 0 0 0 0 0 0 0 0 0 0 0 0 0 0 0 0 3 3 0 0 0 0 0 0 0 0 0 0 0 0 0 0 0 0 0 0 0 0 0
3 4 6 13 8 3 6 0 1 0 0 0 0 0 0 0 3 12 11 16 20 17 17 6 0 0 0 0 0 0 0 0 0 0 0 0 0 0 0 0 0 0 0
0 1 3 10 7 7 7 5 3 0 0 1 1 3 0 1 0 0 3 6 15 28 11 8 12 0 0 0 0 0 0 0 0 0 0 0 0 0 0 0 0 0 0
0 0 0 0 0 0 0 0 0 0 0 0 0 0 1 20 13 7 6 4 8 31 25 19 8 0 0 0 0 0 0 0 0 0 0 0 0 0 0 1 0 0 0

GFSGL_con_mlcape_147.txt.gz
CAPE
366 744 469 427 597 422 470 703 711 966 682 262 832 945 1103 707 865 1159 1119 1029 822 618 888 921 970 1099 889 825 697 967 741 721 435 312 466 862 965 609 884 464 13 0 0
372 358 334 237 703 350 507 707 611 937 895 912 1010 1067 981 1150 1160 1052 812 682 937 1146 1076 953 852 939 1103 834 776 749 731 588 408 284 4 68 568 1246 821 668 158 0 0
445 606 463 499 525 446 381 639 738 568 680 898 999 946 927 881 1094 1003 841 864 645 797 1178 891 914 1130 891 738 395 613 525 556 286 111 136 391 435 303 243 280 26 0 0
667 827 622 670 542 727 797 711 501 1150 1025 1170 1236 1159 1004 1205 1328 984 785 987 628 666 723 1094 879 637 779 688 520 445 416 397 279 341 274 162 208 316 303 219 63 0 0
611 758 743 649 837 585 876 879 761 868 765 634 808 1012 963 1070 1023 735 731 960 982 798 795 725 703 470 540 392 256 360 559 315 168 29 36 15 143 79 111 174 25 151 17
721 789 821 744 688 774 647 850 818 872 980 1025 1008 986 939 988 348 201 230 848 789 499 284 284 299 340 209 223 275 182 127 110 75 89 149 109 85 71 61 131 111 39 86
1043 888 941 831 729 746 749 687 606 652 808 1008 970 918 850 216 46 84 79 125 439 550 515 611 786 713 296 157 140 185 0 61 57 48 66 69 81 2 7 115 70 49 60
1080 1032 1029 1022 744 801 895 935 927 1103 994 843 768 769 299 0 0 0 0 0 6 293 341 237 241 23 0 0 38 144 179 51 11 0 0 0 0 0 0 0 8 93 4
788 1144 1033 1167 907 775 431 620 807 906 757 487 299 165 24 0 0 0 0 18 126 13 0 0 0 0 0 0 0 0 38 0 0 0 0 0 0 0 0 0 0 1 50
839 819 845 884 771 793 759 801 500 317 85 1 0 1 2 0 0 0 0 7 35 0 0 0 0 0 0 0 0 0 0 0 0 0 0 0 0 0 0 0 0 0 0
89 506 496 491 498 321 299 326 85 28 4 0 1 1 0 0 0 0 0 0 1 0 0 0 0 0 0 0 0 0 0 0 0 0 0 0 0 0 0 0 0 0 0
43 73 178 135 102 33 15 6 0 0 0 0 0 1 3 1 0 0 0 0 0 0 0 0 0 0 0 0 0 0 0 0 0 0 0 0 0 0 0 0 0 0 0
1 29 61 0 0 0 0 0 0 0 1 2 1 0 2 2 0 0 0 0 0 0 0 0 0 0 0 0 0 0 0 0 0 0 0 0 0 0 0 0 0 0 0
42 64 54 6 2 1 0 1 0 0 0 0 0 0 0 0 0 0 0 0 0 0 0 0 0 0 0 0 0 0 0 0 0 0 0 0 0 0 0 0 0 0 0
1 1 0 0 0 0 0 0 0 0 0 0 0 0 0 0 0 0 0 0 0 0 0 0 0 0 0 0 0 0 0 0 0 0 0 0 0 0 0 0 0 0 0
2 1 0 0 0 0 0 0 0 0 0 0 0 0 0 0 0 0 0 0 0 0 0 0 0 0 0 0 0 0 0 0 0 0 0 0 0 0 0 0 0 0 0
4 3 0 0 0 0 0 0 0 0 0 0 0 0 0 0 0 0 0 0 0 0 0 0 0 0 0 0 0 0 0 0 0 0 0 0 0 0 0 0 0 0 0
1 9 5 0 0 0 0 0 0 0 0 0 0 0 0 0 0 0 0 0 0 0 0 0 0 0 0 0 0 0 0 0 0 0 0 0 0 0 0 0 0 0 0
0 0 1 0 0 0 0 0 0 0 0 0 0 0 0 0 0 0 0 0 0 0 0 0 0 0 0 0 0 0 0 0 0 0 0 0 0 0 0 0 0 0 0
0 0 0 0 0 0 0 0 0 0 0 0 0 0 0 0 0 0 0 0 0 0 0 0 0 0 0 0 0 0 0 0 0 0 0 0 0 0 0 0 0 0 0
0 0 0 0 0 0 0 0 0 0 0 0 0 0 0 0 0 0 0 0 0 0 0 0 0 0 0 0 0 0 0 0 0 0 0 0 0 0 0 0 0 0 0
0 0 0 0 0 0 0 0 0 0 0 0 0 0 0 0 0 0 0 0 0 0 0 0 0 0 0 0 0 0 0 0 0 0 0 0 0 0 0 0 0 0 0
0 0 0 0 0 0 0 0 0 0 0 0 0 0 0 0 0 0 0 0 0 0 0 0 0 0 0 0 0 0 0 0 0 0 0 0 0 0 0 0 0 0 0
0 0 0 0 0 0 0 2 2 0 0 0 1 0 0 0 0 0 0 0 6 4 4 10 4 0 0 0 0 0 0 0 0 0 0 0 0 0 0 0 0 0 0
0 0 0 3 0 0 0 0 0 0 0 0 0 0 0 0 0 1 0 2 15 13 5 3 2 0 0 0 0 0 0 0 0 0 0 0 0 0 0 0 0 0 0
0 0 0 0 0 0 0 0 0 0 0 0 0 0 0 0 0 0 1 1 0 1 5 22 3 0 0 0 0 0 0 0 0 0 0 0 0 0 0 0 0 0 0

GFSGL_con_mlcape_150.txt.gz
CAPE
365 484 372 529 368 167 438 755 666 467 637 805 737 811 789 799 792 768 843 746 788 596 473 679 776 793 809 766 464 774 243 288 290 218 333 250 474 549 382 27 0 0 0
321 431 402 396 438 334 372 560 727 446 389 419 398 779 725 771 828 717 880 1060 662 711 930 804 684 777 680 679 645 536 300 321 185 54 21 164 370 332 315 98 0 0 0
380 394 392 297 342 237 317 355 542 664 700 570 701 706 676 713 816 933 824 638 552 597 660 673 652 628 646 778 615 400 270 445 273 202 139 235 206 173 244 6 0 0 0
467 371 460 407 275 390 424 309 479 594 590 629 627 685 656 687 760 819 802 605 624 691 459 649 909 606 389 455 407 332 366 320 250 212 200 75 63 158 251 43 7 0 0
562 524 391 425 416 360 463 428 367 457 625 773 749 847 994 888 802 883 722 682 670 696 663 718 718 501 353 369 342 258 300 272 240 171 77 67 87 68 21 147 144 3 0
679 614 581 704 651 573 515 659 773 742 831 925 747 633 684 827 639 429 356 357 469 447 392 375 490 366 367 240 193 191 154 142 83 35 19 73 94 131 79 56 97 85 32
497 646 852 786 828 756 600 679 889 755 672 816 778 811 818 575 237 103 191 162 433 476 421 467 295 112 99 162 119 187 69 62 75 66 53 49 57 23 0 24 77 65 20
148 241 660 897 838 789 588 679 645 645 625 742 759 836 488 65 5 9 62 74 60 187 242 216 120 28 0 8 25 121 102 12 0 0 0 0 0 0 0 0 0 4 0
3 37 136 679 718 856 751 651 585 609 527 481 275 145 52 0 0 0 2 39 20 0 0 0 0 0 0 0 0 3 0 0 0 0 0 0 0 0 0 0 0 1 15
0 3 78 384 742 569 629 522 472 345 114 51 15 0 1 0 0 0 0 15 0 0 0 0 0 0 0 0 0 0 3 0 0 0 0 0 0 0 0 0 0 0 0
9 33 7 0 284 484 359 240 112 61 17 0 0 0 0 0 0 0 0 0 0 0 0 0 0 0 0 0 0 0 0 2 0 0 0 0 0 0 0 0 0 0 0
47 43 0 0 26 41 95 14 0 0 0 0 0 1 2 1 0 0 0 0 0 0 0 0 0 0 0 0 0 0 0 0 0 0 0 0 0 0 0 0 0 0 0
39 6 0 0 20 6 0 0 0 0 0 0 0 1 1 1 0 0 0 0 0 0 0 0 0 0 0 0 0 0 0 0 0 0 0 0 0 0 0 0 0 0 0
20 0 0 0 0 0 2 2 0 1 0 1 1 1 2 0 0 0 0 0 0 0 0 0 0 0 0 0 0 0 0 0 0 0 0 0 0 0 0 0 0 0 0
0 0 0 0 0 0 0 0 0 0 0 0 0 0 0 0 0 0 0 0 0 0 0 0 0 0 0 0 0 0 0 0 0 0 0 0 0 0 0 0 0 0 0
0 1 0 0 0 0 0 0 0 0 0 0 0 0 0 0 0 0 0 0 0 0 0 0 0 0 0 0 0 0 0 0 0 0 0 0 0 0 0 0 0 0 0
0 0 0 0 0 0 0 0 0 0 0 0 0 0 0 0 0 0 0 0 0 0 0 0 0 0 0 0 0 0 0 0 0 0 0 0 0 0 0 0 0 0 0
0 0 0 0 0 0 0 0 0 0 0 0 0 0 0 0 0 0 0 0 0 0 0 0 0 0 0 0 0 0 0 0 0 0 0 0 0 0 0 0 0 0 0
0 0 0 0 0 0 0 0 0 0 0 0 0 0 0 0 0 0 0 0 0 0 0 0 0 0 0 0 0 0 0 0 0 0 0 0 0 0 0 0 0 0 0
0 0 0 0 0 0 0 0 0 0 0 0 0 0 0 0 0 0 0 0 0 0 0 0 0 0 0 0 0 0 0 0 0 0 0 0 0 0 0 0 0 0 0
0 0 0 0 0 0 0 0 0 0 0 0 0 0 0 0 0 0 0 0 0 0 0 0 0 0 0 0 0 0 0 0 0 0 0 0 0 0 0 0 0 0 0
0 0 0 0 0 0 0 0 0 0 0 0 0 0 0 0 0 0 0 0 0 0 0 0 0 0 0 0 0 0 0 0 0 0 0 0 0 0 0 0 0 0 0
0 0 0 0 0 0 0 0 0 0 0 0 0 0 0 0 0 0 0 0 0 0 0 0 0 0 0 0 0 0 0 0 0 0 0 0 0 0 0 0 0 0 0
0 0 0 0 0 0 0 0 0 0 0 0 0 0 0 0 0 0 0 0 0 0 0 2 11 6 6 0 0 0 0 0 0 0 0 0 0 0 0 0 0 0 0
0 0 0 0 0 0 0 0 0 0 0 0 0 0 0 0 0 0 0 0 0 0 0 10 4 0 0 0 0 0 0 0 0 0 0 0 0 0 0 0 0 0 0
0 0 0 0 0 0 0 0 0 0 0 0 0 0 0 0 0 0 0 0 0 0 0 0 0 7 0 0 0 0 0 0 0 0 0 0 0 0 0 0 0 0 0